Location: Unspecified
(0.0000°N, 0.0000°E)
Time: 06:49:09
(UTC+00:00)

Kosmos-2233 - Pass Details

Date: 22 February 2024
Orbit: 950 x 1007 km, 82.9° (Epoch: 24 April)

Event Time Altitude Azimuth Distance (km) Brightness Sun altitude
Rises 18:55:43 0° 162° (SSE) 3,622 8.4 -10.4°
Reaches altitude 10° 18:58:32 10° 151° (SSE) 2,678 7.6 -11.1°
Maximum altitude 19:03:44 29° 93° (E) 1,672 6.2 -12.4°
Drops below altitude 10° 19:08:56 10° 35° (NE) 2,692 7.4 -13.6°
Sets 19:11:45 0° 24° (NNE) 3,645 8.2 -14.3°
